Time,TemperatureF,DewpointF,PressureIn,WindDirection,WindDirectionDegrees,WindSpeedMPH,WindSpeedGustMPH,Humidity,HourlyPrecipIn,Conditions,Clouds,dailyrainin,SoftwareType,DateUTC
2013-05-24 00:03:00,65.0,64.0,29.81,WSW,245,0.0,0.0,97,0.21,,,0.63,,2013-05-24 04:03:00,
2013-05-24 00:12:00,65.0,64.0,29.81,WSW,245,0.0,0.0,97,0.21,,,0.63,,2013-05-24 04:12:00,
2013-05-24 00:23:00,65.0,64.0,29.81,WSW,240,0.0,0.0,98,0.14,,,0.64,,2013-05-24 04:23:00,
2013-05-24 00:33:00,65.0,64.0,29.81,SSW,203,0.0,0.0,98,0.10,,,0.64,,2013-05-24 04:33:00,
2013-05-24 00:42:00,65.0,64.0,29.81,SSW,203,0.0,0.0,98,0.10,,,0.64,,2013-05-24 04:42:00,
2013-05-24 00:53:00,65.0,64.0,29.81,ESE,102,0.0,0.0,98,0.08,,,0.67,,2013-05-24 04:53:00,
2013-05-24 01:02:00,65.0,64.0,29.80,WSW,239,0.0,0.0,98,0.06,,,0.69,,2013-05-24 05:02:00,
2013-05-24 01:12:00,65.0,64.0,29.80,WSW,239,0.0,0.0,98,0.06,,,0.69,,2013-05-24 05:12:00,
2013-05-24 01:22:00,65.0,64.0,29.79,WSW,252,0.0,0.0,98,0.14,,,0.78,,2013-05-24 05:22:00,
2013-05-24 01:32:00,65.0,64.0,29.79,WSW,258,0.0,0.0,98,0.16,,,0.80,,2013-05-24 05:32:00,
2013-05-24 01:42:00,65.0,64.0,29.79,WSW,258,0.0,0.0,98,0.16,,,0.80,,2013-05-24 05:42:00,
2013-05-24 01:52:00,65.0,64.0,29.78,West,276,0.0,0.0,98,0.20,,,0.87,,2013-05-24 05:52:00,
2013-05-24 02:02:00,65.0,64.0,29.78,NW,309,0.0,0.0,98,0.22,,,0.91,,2013-05-24 06:02:00,
2013-05-24 02:12:00,65.0,64.0,29.78,NW,309,0.0,0.0,98,0.22,,,0.91,,2013-05-24 06:12:00,
2013-05-24 02:21:00,65.0,64.0,29.77,NW,314,0.0,0.0,98,0.21,,,0.99,,2013-05-24 06:21:00,
2013-05-24 02:32:00,65.0,64.0,29.77,West,263,0.0,0.0,98,0.24,,,1.04,,2013-05-24 06:32:00,
2013-05-24 02:42:00,65.0,64.0,29.77,West,263,0.0,0.0,98,0.24,,,1.04,,2013-05-24 06:42:00,
2013-05-24 02:52:00,64.0,63.0,29.76,WSW,248,0.0,0.0,98,0.28,,,1.15,,2013-05-24 06:52:00,
2013-05-24 03:01:00,64.0,63.0,29.75,WSW,257,0.0,0.0,98,0.32,,,1.23,,2013-05-24 07:01:00,
2013-05-24 03:11:00,64.0,63.0,29.75,WSW,257,0.0,0.0,98,0.32,,,1.23,,2013-05-24 07:11:00,
2013-05-24 03:22:00,64.0,63.0,29.75,SW,219,0.0,0.0,98,0.29,,,1.27,,2013-05-24 07:22:00,
2013-05-24 03:32:00,64.0,64.0,29.74,NW,307,0.0,0.0,99,0.28,,,1.31,,2013-05-24 07:32:00,
2013-05-24 03:42:00,64.0,64.0,29.74,NW,307,0.0,0.0,99,0.28,,,1.31,,2013-05-24 07:42:00,
2013-05-24 03:52:00,64.0,64.0,29.74,NW,313,0.0,0.0,99,0.36,,,1.51,,2013-05-24 07:52:00,
2013-05-24 04:02:00,64.0,64.0,29.73,West,270,0.0,0.0,99,0.39,,,1.61,,2013-05-24 08:02:00,
2013-05-24 04:11:00,64.0,64.0,29.73,West,270,0.0,0.0,99,0.39,,,1.61,,2013-05-24 08:11:00,
2013-05-24 04:22:00,64.0,64.0,29.72,WNW,287,0.0,0.0,99,0.39,,,1.67,,2013-05-24 08:22:00,
2013-05-24 04:33:00,64.0,64.0,29.71,NW,315,0.0,0.0,99,0.37,,,1.69,,2013-05-24 08:33:00,
2013-05-24 04:42:00,64.0,64.0,29.71,NW,315,0.0,0.0,99,0.37,,,1.69,,2013-05-24 08:42:00,
2013-05-24 04:52:00,64.0,64.0,29.70,NW,306,0.0,0.0,99,0.21,,,1.72,,2013-05-24 08:52:00,
2013-05-24 05:02:00,64.0,64.0,29.70,NW,311,0.0,0.0,99,0.12,,,1.73,,2013-05-24 09:02:00,
2013-05-24 05:11:00,64.0,64.0,29.70,NW,311,0.0,0.0,99,0.12,,,1.73,,2013-05-24 09:11:00,
2013-05-24 05:22:00,64.0,64.0,29.69,West,270,0.0,0.0,99,0.09,,,1.76,,2013-05-24 09:22:00,
2013-05-24 05:32:00,64.0,64.0,29.69,WNW,299,0.0,0.0,99,0.07,,,1.76,,2013-05-24 09:32:00,
2013-05-24 05:42:00,64.0,64.0,29.69,WNW,299,0.0,0.0,99,0.07,,,1.76,,2013-05-24 09:42:00,
2013-05-24 05:53:00,64.0,64.0,29.68,WNW,299,0.0,0.0,99,0.05,,,1.77,,2013-05-24 09:53:00,
2013-05-24 06:03:00,64.0,64.0,29.68,WNW,299,0.0,0.0,99,0.04,,,1.77,,2013-05-24 10:03:00,
2013-05-24 06:12:00,64.0,64.0,29.68,WNW,299,0.0,0.0,99,0.04,,,1.77,,2013-05-24 10:12:00,
2013-05-24 06:22:00,64.0,64.0,29.67,WNW,299,0.0,0.0,99,0.01,,,1.76,,2013-05-24 10:22:00,
2013-05-24 06:33:00,64.0,64.0,29.67,WNW,299,0.0,0.0,99,0.01,,,1.76,,2013-05-24 10:33:00,
2013-05-24 06:42:00,64.0,64.0,29.67,WNW,299,0.0,0.0,99,0.01,,,1.76,,2013-05-24 10:42:00,
2013-05-24 06:53:00,64.0,64.0,29.67,WNW,299,0.0,0.0,99,0.00,,,1.76,,2013-05-24 10:53:00,
2013-05-24 07:02:00,64.0,64.0,29.66,NW,311,0.0,0.0,99,0.00,,,1.76,,2013-05-24 11:02:00,
2013-05-24 07:12:00,64.0,64.0,29.66,NW,311,0.0,0.0,99,0.00,,,1.76,,2013-05-24 11:12:00,
2013-05-24 07:22:00,65.0,65.0,29.67,East,98,0.0,0.0,99,0.00,,,1.76,,2013-05-24 11:22:00,
2013-05-24 07:32:00,65.0,65.0,29.67,East,97,0.0,0.0,99,0.00,,,1.76,,2013-05-24 11:32:00,
2013-05-24 07:42:00,65.0,65.0,29.67,East,97,0.0,0.0,99,0.00,,,1.76,,2013-05-24 11:42:00,
2013-05-24 07:52:00,65.0,65.0,29.66,NNW,342,0.0,0.0,99,0.00,,,1.76,,2013-05-24 11:52:00,
2013-05-24 08:02:00,65.0,65.0,29.69,NNW,342,0.0,0.0,99,0.00,,,1.76,,2013-05-24 12:02:00,
2013-05-24 08:11:00,65.0,65.0,29.69,NNW,342,0.0,0.0,99,0.00,,,1.76,,2013-05-24 12:11:00,
2013-05-24 08:22:00,65.0,65.0,29.70,NNE,27,0.0,0.0,99,0.00,,,1.76,,2013-05-24 12:22:00,
2013-05-24 08:32:00,66.0,66.0,29.71,NNW,340,0.0,0.0,99,0.00,,,1.76,,2013-05-24 12:32:00,
2013-05-24 08:42:00,66.0,66.0,29.71,NNW,340,0.0,0.0,99,0.00,,,1.76,,2013-05-24 12:42:00,
2013-05-24 08:52:00,66.0,66.0,29.72,East,84,0.0,0.0,99,0.00,,,1.76,,2013-05-24 12:52:00,
2013-05-24 09:02:00,65.0,65.0,29.72,East,98,0.0,0.0,99,0.01,,,1.77,,2013-05-24 13:02:00,
2013-05-24 09:11:00,65.0,65.0,29.72,East,98,0.0,0.0,99,0.01,,,1.77,,2013-05-24 13:11:00,
2013-05-24 09:22:00,66.0,66.0,29.72,ESE,115,0.0,0.0,99,0.01,,,1.77,,2013-05-24 13:22:00,
2013-05-24 09:32:00,66.0,66.0,29.72,ESE,106,0.0,0.0,99,0.01,,,1.77,,2013-05-24 13:32:00,
2013-05-24 09:42:00,66.0,66.0,29.72,ESE,106,0.0,0.0,99,0.01,,,1.77,,2013-05-24 13:42:00,
2013-05-24 09:52:00,67.0,66.0,29.72,ESE,108,0.0,0.0,98,0.01,,,1.77,,2013-05-24 13:52:00,
2013-05-24 10:02:00,67.0,66.0,29.72,ESE,103,0.0,0.0,98,0.00,,,1.77,,2013-05-24 14:02:00,
2013-05-24 10:11:00,67.0,66.0,29.72,ESE,103,0.0,0.0,98,0.00,,,1.77,,2013-05-24 14:11:00,
2013-05-24 10:21:00,67.0,67.0,29.73,ESE,102,0.0,0.0,99,0.00,,,1.77,,2013-05-24 14:21:00,
2013-05-24 10:32:00,68.0,67.0,29.73,ESE,102,0.0,0.0,98,0.00,,,1.77,,2013-05-24 14:32:00,
2013-05-24 10:42:00,68.0,67.0,29.73,ESE,102,0.0,0.0,98,0.00,,,1.77,,2013-05-24 14:42:00,
2013-05-24 10:52:00,68.0,67.0,29.73,ESE,102,0.0,0.0,98,0.00,,,1.77,,2013-05-24 14:52:00,
2013-05-24 11:02:00,69.0,68.0,29.73,ENE,70,0.0,0.0,95,0.00,,,1.77,,2013-05-24 15:02:00,
2013-05-24 11:11:00,69.0,68.0,29.73,ENE,70,0.0,0.0,95,0.00,,,1.77,,2013-05-24 15:11:00,
2013-05-24 11:22:00,69.0,67.0,29.74,ENE,68,0.0,0.0,93,0.00,,,1.74,,2013-05-24 15:22:00,
2013-05-24 11:33:00,69.0,67.0,29.74,ENE,65,0.0,0.0,94,0.00,,,1.74,,2013-05-24 15:33:00,
2013-05-24 11:43:00,69.0,67.0,29.74,ENE,65,0.0,0.0,94,0.00,,,1.74,,2013-05-24 15:43:00,
2013-05-24 11:52:00,70.0,68.0,29.75,ENE,68,0.0,0.0,93,0.00,,,1.74,,2013-05-24 15:52:00,
2013-05-24 12:03:00,70.0,68.0,29.73,ENE,60,0.0,0.0,92,0.00,,,1.74,,2013-05-24 16:03:00,
2013-05-24 12:13:00,70.0,68.0,29.73,ENE,60,0.0,0.0,92,0.00,,,1.74,,2013-05-24 16:13:00,
2013-05-24 12:22:00,70.0,67.0,29.73,NNE,26,0.0,0.0,89,0.00,,,1.72,,2013-05-24 16:22:00,
2013-05-24 12:32:00,70.0,67.0,29.73,NNE,26,0.0,0.0,89,0.00,,,1.72,,2013-05-24 16:32:00,
2013-05-24 12:42:00,70.0,67.0,29.73,NNE,26,0.0,0.0,89,0.00,,,1.72,,2013-05-24 16:42:00,
2013-05-24 12:52:00,71.0,67.0,29.74,NNE,23,0.0,0.0,88,0.00,,,1.72,,2013-05-24 16:52:00,
2013-05-24 13:02:00,70.0,66.0,29.73,NNE,21,0.0,0.0,87,0.00,,,1.72,,2013-05-24 17:02:00,
2013-05-24 13:12:00,70.0,66.0,29.73,NNE,21,0.0,0.0,87,0.00,,,1.72,,2013-05-24 17:12:00,
2013-05-24 13:22:00,70.0,67.0,29.73,NNE,22,0.0,0.0,90,0.00,,,1.72,,2013-05-24 17:22:00,
2013-05-24 13:32:00,72.0,69.0,29.73,NNE,22,0.0,0.0,89,0.00,,,1.72,,2013-05-24 17:32:00,
2013-05-24 13:42:00,72.0,69.0,29.73,NNE,22,0.0,0.0,89,0.00,,,1.72,,2013-05-24 17:42:00,
2013-05-24 13:52:00,72.0,67.0,29.73,NNE,23,0.0,0.0,84,0.00,,,1.72,,2013-05-24 17:52:00,
2013-05-24 14:01:00,73.0,68.0,29.72,NNE,19,0.0,0.0,85,0.00,,,1.72,,2013-05-24 18:01:00,
2013-05-24 14:12:00,73.0,68.0,29.72,NNE,19,0.0,0.0,85,0.00,,,1.72,,2013-05-24 18:12:00,
2013-05-24 14:22:00,68.0,62.0,29.74,WSW,257,0.0,0.0,82,0.00,,,1.72,,2013-05-24 18:22:00,
2013-05-24 14:32:00,65.0,61.0,29.74,WSW,250,0.0,0.0,88,0.01,,,1.73,,2013-05-24 18:32:00,
2013-05-24 14:42:00,65.0,61.0,29.74,WSW,250,0.0,0.0,88,0.01,,,1.73,,2013-05-24 18:42:00,
2013-05-24 14:52:00,64.0,61.0,29.74,WSW,256,0.0,0.0,91,0.01,,,1.73,,2013-05-24 18:52:00,
2013-05-24 15:01:00,64.0,60.0,29.75,WSW,255,0.0,0.0,88,0.01,,,1.73,,2013-05-24 19:01:00,
2013-05-24 15:11:00,64.0,60.0,29.75,WSW,255,0.0,0.0,88,0.01,,,1.73,,2013-05-24 19:11:00,
2013-05-24 15:21:00,64.0,60.0,29.75,West,278,0.0,0.0,86,0.01,,,1.73,,2013-05-24 19:21:00,
2013-05-24 15:32:00,64.0,60.0,29.75,West,273,0.0,0.0,87,0.00,,,1.73,,2013-05-24 19:32:00,
2013-05-24 15:42:00,64.0,60.0,29.75,West,273,0.0,0.0,87,0.00,,,1.73,,2013-05-24 19:42:00,
2013-05-24 15:52:00,63.0,59.0,29.75,WSW,253,0.0,0.0,86,0.00,,,1.73,,2013-05-24 19:52:00,
2013-05-24 16:02:00,63.0,59.0,29.75,West,277,0.0,0.0,86,0.00,,,1.73,,2013-05-24 20:02:00,
2013-05-24 16:12:00,63.0,59.0,29.75,West,277,0.0,0.0,86,0.00,,,1.73,,2013-05-24 20:12:00,
2013-05-24 16:22:00,65.0,60.0,29.75,West,262,0.0,0.0,83,0.00,,,1.73,,2013-05-24 20:22:00,
2013-05-24 16:32:00,65.0,58.0,29.75,WNW,285,0.0,0.0,78,0.00,,,1.73,,2013-05-24 20:32:00,
2013-05-24 16:42:00,65.0,58.0,29.75,WNW,285,0.0,0.0,78,0.00,,,1.73,,2013-05-24 20:42:00,
2013-05-24 16:52:00,64.0,57.0,29.75,West,273,0.0,0.0,79,0.00,,,1.73,,2013-05-24 20:52:00,
2013-05-24 17:01:00,63.0,56.0,29.76,West,275,0.0,0.0,78,0.00,,,1.73,,2013-05-24 21:01:00,
2013-05-24 17:11:00,63.0,56.0,29.76,West,275,0.0,0.0,78,0.00,,,1.73,,2013-05-24 21:11:00,
2013-05-24 17:21:00,62.0,56.0,29.77,West,270,0.0,0.0,81,0.00,,,1.73,,2013-05-24 21:21:00,
2013-05-24 17:33:00,62.0,55.0,29.77,North,6,0.0,0.0,79,0.00,,,1.73,,2013-05-24 21:33:00,
2013-05-24 17:42:00,62.0,55.0,29.77,North,6,0.0,0.0,79,0.00,,,1.73,,2013-05-24 21:42:00,
2013-05-24 17:53:00,60.0,53.0,29.76,West,266,0.0,0.0,78,0.00,,,1.73,,2013-05-24 21:53:00,
2013-05-24 18:03:00,60.0,53.0,29.77,West,273,0.0,0.0,78,0.00,,,1.73,,2013-05-24 22:03:00,
2013-05-24 18:12:00,60.0,53.0,29.77,West,273,0.0,0.0,78,0.00,,,1.73,,2013-05-24 22:12:00,
2013-05-24 18:22:00,59.0,53.0,29.78,East,89,0.0,0.0,80,0.00,,,1.67,,2013-05-24 22:22:00,
2013-05-24 18:33:00,59.0,53.0,29.78,West,264,0.0,0.0,80,0.00,,,1.67,,2013-05-24 22:33:00,
2013-05-24 18:42:00,59.0,53.0,29.78,West,264,0.0,0.0,80,0.00,,,1.67,,2013-05-24 22:42:00,
2013-05-24 18:52:00,57.0,52.0,29.79,West,271,0.0,0.0,83,0.00,,,1.67,,2013-05-24 22:52:00,
2013-05-24 19:02:00,57.0,52.0,29.79,West,272,0.0,0.0,84,0.00,,,1.67,,2013-05-24 23:02:00,
2013-05-24 19:11:00,57.0,52.0,29.79,West,272,0.0,0.0,84,0.00,,,1.67,,2013-05-24 23:11:00,
2013-05-24 19:22:00,56.0,50.0,29.80,WNW,283,0.0,0.0,80,0.00,,,1.39,,2013-05-24 23:22:00,
2013-05-24 19:32:00,56.0,50.0,29.81,West,269,0.0,0.0,79,0.00,,,1.39,,2013-05-24 23:32:00,
2013-05-24 19:42:00,56.0,50.0,29.81,West,269,0.0,0.0,79,0.00,,,1.39,,2013-05-24 23:42:00,
2013-05-24 19:52:00,55.0,49.0,29.82,West,274,0.0,0.0,81,0.00,,,1.39,,2013-05-24 23:52:00,
2013-05-24 20:01:00,55.0,49.0,29.82,West,281,0.0,0.0,81,0.00,,,1.39,,2013-05-25 00:01:00,
2013-05-24 20:12:00,55.0,49.0,29.82,West,281,0.0,0.0,81,0.00,,,1.39,,2013-05-25 00:12:00,
2013-05-24 20:22:00,53.0,49.0,29.83,West,269,0.0,0.0,85,0.00,,,1.38,,2013-05-25 00:22:00,
2013-05-24 20:32:00,52.0,49.0,29.83,WSW,257,0.0,0.0,88,0.00,,,1.38,,2013-05-25 00:32:00,
2013-05-24 20:42:00,52.0,49.0,29.83,WSW,257,0.0,0.0,88,0.00,,,1.38,,2013-05-25 00:42:00,
2013-05-24 20:52:00,51.0,49.0,29.84,WSW,245,0.0,0.0,92,0.00,,,1.38,,2013-05-25 00:52:00,
2013-05-24 21:01:00,50.0,48.0,29.84,SW,225,0.0,0.0,92,0.00,,,1.38,,2013-05-25 01:01:00,
2013-05-24 21:11:00,50.0,48.0,29.84,SW,225,0.0,0.0,92,0.00,,,1.38,,2013-05-25 01:11:00,
2013-05-24 21:22:00,50.0,48.0,29.84,WSW,242,0.0,0.0,94,0.02,,,1.40,,2013-05-25 01:22:00,
2013-05-24 21:32:00,49.0,48.0,29.84,SW,229,0.0,0.0,95,0.05,,,1.43,,2013-05-25 01:32:00,
2013-05-24 21:42:00,49.0,48.0,29.84,SW,229,0.0,0.0,95,0.05,,,1.43,,2013-05-25 01:42:00,
2013-05-24 21:52:00,49.0,48.0,29.85,SW,225,0.0,0.0,96,0.07,,,1.45,,2013-05-25 01:52:00,
2013-05-24 22:02:00,49.0,48.0,29.85,SW,226,0.0,0.0,96,0.09,,,1.47,,2013-05-25 02:02:00,
2013-05-24 22:12:00,49.0,48.0,29.85,SW,226,0.0,0.0,96,0.09,,,1.47,,2013-05-25 02:12:00,
2013-05-24 22:22:00,49.0,48.0,29.85,SW,222,0.0,0.0,96,0.07,,,1.48,,2013-05-25 02:22:00,
2013-05-24 22:32:00,48.0,47.0,29.85,SW,229,0.0,0.0,96,0.05,,,1.48,,2013-05-25 02:32:00,
2013-05-24 22:42:00,48.0,47.0,29.85,SW,229,0.0,0.0,96,0.05,,,1.48,,2013-05-25 02:42:00,
2013-05-24 22:52:00,48.0,47.0,29.85,SW,228,0.0,0.0,97,0.04,,,1.49,,2013-05-25 02:52:00,
2013-05-24 23:02:00,48.0,47.0,29.86,SW,226,0.0,0.0,97,0.02,,,1.49,,2013-05-25 03:02:00,
2013-05-24 23:11:00,48.0,47.0,29.86,SW,226,0.0,0.0,97,0.02,,,1.49,,2013-05-25 03:11:00,
2013-05-24 23:22:00,48.0,47.0,29.86,SW,236,0.0,0.0,97,0.02,,,1.46,,2013-05-25 03:22:00,
2013-05-24 23:32:00,48.0,47.0,29.86,SW,224,0.0,0.0,97,0.02,,,1.46,,2013-05-25 03:32:00,
2013-05-24 23:43:00,48.0,47.0,29.86,SW,224,0.0,0.0,97,0.02,,,1.46,,2013-05-25 03:43:00,
2013-05-24 23:53:00,48.0,47.0,29.86,SW,225,0.0,0.0,97,0.01,,,1.46,,2013-05-25 03:53:00,